www.pogodaiklimat.ru
ПОГОДА в Сураттхани
Время
(UTC), дата
00 29.11
03 29.11
06 29.11
09 29.11
12 29.11
15 29.11
18 29.11
21 29.11
00 30.11
03 30.11
06 30.11
09 30.11
12 30.11
15 30.11
18 30.11
21 30.11
00 1.12
03 1.12
06 1.12
09 1.12
12 1.12
15 1.12
18 1.12
21 1.12
00 2.12
03 2.12
06 2.12
09 2.12
12 2.12
15 2.12
18 2.12
21 2.12
00 3.12
03 3.12
06 3.12
09 3.12
12 3.12
15 3.12
18 3.12
21 3.12
00 4.12
03 4.12
06 4.12
09 4.12
12 4.12
15 4.12
18 4.12
21 4.12
00 5.12
03 5.12
06 5.12
09 5.12
12 5.12
15 5.12
18 5.12
21 5.12
Ветер
(напр.,м/с)
Видим. Явления Облачность Т
(С)
Тd
(С)
f
(%)
Тe
(С)
Тes
(С)
Комфортность P
(гПа)
Po
(гПа)
Тmin
(С)
Tmax
(С)
R
(мм)
R24
(мм)
S
(см)
штиль 0 8000 м дымка {дождь} 8/4 300 м
[Cu Sc Ac cuf Cs]
+24.0 +23.4 96 +32 +32 очень
душно
1010.9 1010.1 +23.7 9 8.5
С 2 9000 м дымка 8/4 300 м
[Cu Sc Ac As Cs]
+29.0 +25.6 82 +43 +47 опасность
перегрева
1012.2 1011.4
СВ 6 10 км 8/3 600 м
[Cu med, cong Ac As Cs]
+29.4 +24.8 76 +42 +45 опасность
перегрева
1010.4 1009.6 0.1
СВ 5 10 км 8/4 300 м
[Cu Sc Ac As Cs]
+28.7 +24.4 78 +41 +42 опасность
перегрева
1008.8 1008.0
С 3 10 км {дождь} 9/4 300 м
[Cu Sc Ac As Cs]
+26.0 +25.0 94 +37 +37 очень
душно
1010.3 1009.5 +29.5 0.5 0.6
штиль 0 8000 м гроза, ливневой дождь 10/4 300 м
[Cb cap Ac As Cs]
+25.2 +24.2 94 +35 +35 очень
душно
1012.3 1011.5 12
штиль 0 7000 м в посл. час гроза 10/4 300 м
[Cu Sc Ac As]
+24.8 +24.2 96 +34 +34 очень
душно
1011.6 1010.8 38 50.7
штиль 0 7000 м в посл. час дождь 10/3 600 м
[Cu med, cong Ac As Cs]
+24.0 +23.7 98 +33 +33 очень
душно
1009.0 1008.2 0.1
штиль 0 10 км {дождь} 10/3 300 м
[Cb calv Ac As Cs]
+24.1 +23.4 96 +32 +32 очень
душно
1010.6 1009.8 +24.0 51 50.7
штиль 0 10 км 10/4 600 м
[Cu Sc Ac As Cs]
+25.9 +24.3 91 +36 +40 очень
душно
1012.0 1011.2
СВ 2 10 км {дождь} 9/4 300 м
[Cu Sc Ac As Cs]
+27.8 +24.5 82 +39 +45 очень
душно
1009.6 1008.8 1 51.9
СВ 1 10 км слаб. дождь 10/4 300 м
[Cu Sc Ac As]
+26.8 +24.3 86 +37 +39 очень
душно
1008.3 1007.5 0.3
СВ 2 10 км {дождь} 10/3 300 м
[Cu Sc Ac As Cs]
+26.6 +23.8 85 +37 +37 очень
душно
1009.9 1009.1 +28.6 0.0 51.7
СВ 3 10 км 10/3 600 м
[Cu Sc Ac As Cs]
+26.5 +23.9 86 +37 +37 очень
душно
1012.2 1011.4
штиль 0 10 км 10/4 300 м
[Cu Sc Ac As]
+25.6 +24.1 91 +35 +35 очень
душно
1011.5 1010.7 1.6
штиль 0 9000 м в посл. час дождь 10/3 600 м
[Cu Sc Ac As Cs]
+25.2 +24.3 95 +35 +35 очень
душно
1009.9 1009.1 0.3
штиль 0 7000 м слаб. дождь 10/3 300 м
[Cu Sc Ac As]
+24.0 +23.3 96 +32 +32 очень
душно
1011.9 1011.1 +24.0 1 3.0
В 3 9000 м гроза, ливневой дождь 10/4 300 м
[Cu Sc Ac As]
+24.8 +24.1 96 +34 +36 очень
душно
1013.6 1012.8 3
штиль 0 7000 м гроза, ливневой дождь 10/4 300 м
[Cb cap Ac As]
+23.0 +22.7 98 +32 +35 очень
душно
1011.6 1010.8 46 50.1
ЮЗ 2 7000 м слаб. дождь {гроза} 10/4 300 м
[Cu Sc Ac As]
+23.8 +23.4 98 +32 +33 очень
душно
1009.1 1008.3 12
штиль 0 9000 м дымка {гроза, дождь} 10/4 300 м
[Cu Sc Ac As]
+24.0 +23.4 96 +32 +32 очень
душно
1010.4 1009.6 +25.7 14 75.1
штиль 0 8000 м дымка 10/4 600 м
[Cu Sc Ac As]
+24.0 +23.4 96 +32 +32 очень
душно
1011.6 1010.8
штиль 0 7000 м дымка 10/4 300 м
[Cu Sc Ac As]
+24.0 +23.6 98 +33 +33 очень
душно
1010.8 1010.0 75.1
С 3 7000 м дымка {дождь} 10/4 300 м
[Cu Sc Ac As]
+23.5 +22.9 96 +31 +31 очень
душно
1009.7 1008.9 7
СЗ 1 6000 м слаб. дождь 10/4 300 м
[Cu Sc Ac As]
+23.4 +22.8 96 +33 +33 очень
душно
1009.9 1009.1 +23.4 9 89.0
штиль 0 6000 м слаб. дождь 10/3 300 м
[Cu Sc Ac As]
+23.8 +23.4 98 +32 +35 очень
душно
1012.1 1011.3 32
штиль 0 2000 м гроза, ливневой дождь 10/5 300 м
[Cb cap As op]
+23.6 +23.2 98 +32 +34 очень
душно
1010.7 1009.9 116 188.0
З 2 3000 м дождь {гроза} 10/3 300 м
[Cu Sc As op]
+23.7 +23.4 98 +32 +32 очень
душно
1008.9 1008.1 27
С 2 4000 м сильн. гроза, ливневой дождь 10/4 300 м
[Cb cap As op]
+23.7 +23.3 98 +32 +32 очень
душно
1010.3 1009.5 +24.2 51 240.7
штиль 0 6000 м слаб. дождь {гроза} 10/4 300 м
[Cu Sc As op]
+23.6 +23.3 98 +32 +32 очень
душно
1012.2 1011.4 17
штиль 0 5000 м слаб. дождь {гроза} 10/4 300 м
[Cu Sc As op]
+23.5 +23.2 98 +31 +31 очень
душно
1011.3 1010.5 22 280.1
штиль 0 6000 м гроза, ливневой дождь 10/4 300 м
[Cb cap As op]
+23.3 +23.0 98 +33 +33 очень
душно
1009.3 1008.5 18
С 1 4000 м слаб. дождь {гроза} 10/3 300 м
[Cu Sc As op]
+23.5 +23.0 97 +31 +31 очень
душно
1011.1 1010.3 +23.0 14 296.9
С 2 8000 м дымка {дождь} 10/3 300 м
[Cu Sc As op Cs]
+25.0 +24.1 95 +34 +38 очень
душно
1012.7 1011.9 5
СВ 1 8000 м слаб. дождь 10/3 300 м
[Cb cap As op Cs]
+26.4 +24.2 88 +37 +43 очень
душно
1011.2 1010.4 0.2 154.8
СВ 2 10 км осадки на расстоянии 10/3 300 м
[Cu Sc Ac As Cs]
+27.5 +23.7 80 +38 +39 очень
душно
1009.4 1008.6 1
штиль 0 10 км {дождь} 8/3 600 м
[Cu Sc Ac As Cs]
+25.7 +24.2 91 +36 +36 очень
душно
1010.3 1009.5 +27.5 7 78.1
штиль 0 10 км 3/3 600 м
[Cu hum Ac trans Cs]
+24.3 +23.7 96 +33 +33 очень
душно
1012.0 1011.2
штиль 0 9000 м дымка 3/3 600 м
[Cu hum Ac und Cs]
+23.8 +23.4 98 +32 +32 очень
душно
1011.3 1010.4 38.7
штиль 0 8000 м дымка 5/3 600 м
[Cu Sc Ac lent Cs]
+23.8 +23.4 98 +32 +32 очень
душно
1009.8 1009.0
штиль 0 9000 м дымка 8/3 300 м
[Cb calv Ac As Cs]
+23.5 +23.3 99 +32 +32 очень
душно
1010.3 1009.5 +23.5 6.5
В 5 10 км {дождь} 6/3 600 м
[Cu Sc Ac trans Cs]
+27.7 +25.0 85 +40 +43 очень
душно
1011.8 1011.0 0.9
СВ 6 10 км {дождь} 4/3 300 м
[Cu med, cong Ac lent Cs]
+29.5 +24.0 72 +41 +45 опасность
перегрева
1009.8 1009.0 0.9 2.2
СВ 3 10 км 4/3 600 м
[Cu med, cong Ac trans Cs]
+28.0 +23.0 74 +37 +40 очень
душно
1008.6 1007.8
С 2 10 км 3/3 600 м
[Cu med, cong Ac lent Cs]
+26.0 +23.4 86 +35 +35 очень
душно
1010.6 1009.8 +30.0 0.9
штиль 0 10 км 4/3 600 м
[Cu med, cong Ac lent Cs]
+25.2 +24.0 93 +35 +35 очень
душно
1012.2 1011.4
С 1 10 км 5/3 600 м
[Cu med, cong Ac lent Cs]
+24.7 +23.5 93 +33 +33 очень
душно
1011.6 1010.8 0.9
штиль 0 10 км 5/3 600 м
[Cu med, cong Ac lent Cs]
+23.5 +22.6 95 +31 +31 очень
душно
1010.2 1009.4
штиль 0 9000 м дымка 6/4 600 м
[Cu Sc Cs]
+23.0 +22.4 96 +31 +32 очень
душно
1011.8 1011.0 +23.0 0.9
СВ 4 10 км 8/3 300 м
[Cu med, cong Ac As Cs]
+27.8 +23.0 75 +37 +40 очень
душно
1013.2 1012.4
СВ 7 10 км 6/3 600 м
[Cu med, cong Ac lent Cs]
+29.0 +22.9 70 +39 +41 очень
душно
1011.4 1010.6
СВ 4 10 км 8/4 300 м
[Cu med, cong Ac As Cs]
+27.2 +22.5 76 +36 +37 очень
душно
1010.3 1009.5
СВ 3 10 км 6/3 300 м
[Cu med, cong Ac lent Cs]
+26.1 +22.2 79 +34 +34 очень
душно
1011.8 1011.0 +29.5
С 2 10 км 6/3 600 м
[Cu med, cong Ac lent Cs]
+25.0 +22.8 88 +33 +33 очень
душно
1013.4 1012.6
штиль 0 9000 м дымка 8/4 300 м
[Cu med, cong Ac lent Cs]
+24.5 +22.9 91 +32 +32 очень
душно
1013.0 1012.1
штиль 0 8000 м дымка 9/3 600 м
[Cu med, cong Ac trans Cs]
+24.3 +22.7 91 +32 +32 очень
душно
1011.0 1010.2
Местоположение метеостанции Сураттхани (Таиланд): широта 9.12 долгота 99.15 высота над уровнем моря 11 м.
В архиве по умолчанию представлена погода в Сураттхани за последнюю неделю. Архивные данные за месяц целиком и за предыдущие месяцы, начиная с января 2011 года, Вы можете получить, выбрав интересующий диапазон дат из раскрывающегося списка и нажав кнопку "Найти!".
*Определитесь, кто Вы:
Внимание! Время в таблицах - всемирное. Для получения местного времени необходимо прибавить поправку, которая равна 7 ч.
Смотрите также архив погоды в соседних городах и на ближайших метеорологических станциях:
Партнеры нашего сайта:      
Пояснения к столбцам:
  • Ветер - указаны скорость ветра в м/с - средняя за 10 мин, порывы в срок и между сроками (в фигурных скобках) и направление, откуда дует ветер: С - северный,
  • СВ - северо-восточный, В - восточный, ЮВ - юго-восточный, Ю - южный, ЮЗ - юго-западный, З - западный, СЗ - северо-западный.
  • Видимость - горизонтальная дальность видимости в метрах или километрах. При видимости от 1 до 10 км при отсутствии осадков обычно наблюдается дымка, при ухудшении видимости до 1 км и менее - туман. В сухую погоду видимость может ухудшаться дымом, пылью или мглою.
  • Явления - указаны атмосферные явления, наблюдавшиеся в срок или в последний час перед сроком; фигурными скобками обозначены явления, наблюдавшиеся между сроками (за 1-3 часа до срока); квадратными скобками обозначены град или гололедные отложения с указанием их диаметра в мм.
  • Облачность - указаны через наклонную черту общая и нижняя облачность в баллах и высота нижней границы облаков в метрах; квадратными скобками обозначены формы облаков: Ci - перистые, Cs - перисто-слоистые, Cc - перисто-кучевые, Ac - высококучевые, As - высокослоистые, Sc - слоисто-кучевые, Ns - слоисто-дождевые, Cu - кучевые, Cb - кучево-дождевые. Подробнее классификацию облаков см. в Атласе облаков (PDF).
  • T - Температура воздуха - температура, измеренная на высоте 2 м над землей.
  • Td - Температура точки росы - температура, при понижении до которой содержащийся в воздухе водяной пар достигнет насыщения.
  • f - Относительная влажность воздуха - влажноcть воздуха, измеренная на высоте 2 м над землей.
  • Te - Эффективная температура - температура, которую ощущает одетый по сезону человек в тени. Характеристика душности погоды. При расчете учитывается влияние влажности воздуха и скорости ветра на теплоощущения человека.
  • Tes - Эффективная температура на солнце - температура, которую ощущает человек, с поправкой на солнечный нагрев. Характеристика знойности погоды. Зависит от высоты солнца над горизонтом, облачности и скорости ветра. Ночью, в пасмурную погоду, а также при ветре 12 м/с и более поправка равна нулю.
  • P - Атмосферное давление - приведенное к уровню моря атмосферное давление.
  • Po - Атмосферное давление - измеренное на уровне метеостанции атмосферное давление.
  • Tmin - Минимальная температура - минимум температуры воздуха на высоте 2 м над землей.
  • Tmax - Максимальная температура - максимум температуры воздуха на высоте 2 м над землей.
  • R - Количество осадков - Количество выпавших осадков за период времени, мм. При наведении курсора мыши на число - период времени, за который выпало указанное количество осадков.
  • R24 - Количество осадков - Количество выпавших осадков за 24 часа, мм.
  • S - Снежный покров - Высота снежного покрова, см. При наведении курсора мыши на число - состояние снежного покрова и степень покрытия местности в баллах.